Hourly Weather Ryabchiha

Today, 20 April, Tuesday

Time Temperature Precipitation Wind Pressure Humidity
00:00 +1°C° 0 mm 3 mps 755 mmHg 67%
01:00 0°C° 0 mm 3 mps 754 mmHg 69%
02:00 0°C° 0 mm 3 mps 754 mmHg 71%
03:00 -1°C° 0 mm 3 mps 754 mmHg 72%
04:00 -1°C° 0 mm 3 mps 754 mmHg 73%
05:00 -1°C° 0 mm 3 mps 754 mmHg 75%
06:00 -1°C° 0 mm 4 mps 754 mmHg 68%
07:00 +1°C° 0 mm 4 mps 754 mmHg 61%
08:00 +2°C° 0 mm 5 mps 754 mmHg 53%
09:00 +3°C° 0 mm 5 mps 753 mmHg 53%
10:00 +5°C° 0 mm 5 mps 753 mmHg 52%
11:00 +6°C° 0 mm 5 mps 752 mmHg 51%
12:00 +6°C° 0 mm 5 mps 752 mmHg 52%
13:00 +7°C° 0 mm 5 mps 752 mmHg 53%
14:00 +7°C° 0 mm 5 mps 751 mmHg 55%
15:00 +6°C° 0.1 mm 4 mps 751 mmHg 61%
16:00 +5°C° 0.1 mm 4 mps 751 mmHg 68%
17:00 +5°C° 0.1 mm 3 mps 750 mmHg 75%
18:00 +4°C° 0.1 mm 3 mps 750 mmHg 76%
19:00 +4°C° 0.1 mm 3 mps 749 mmHg 77%
20:00 +4°C° 0.1 mm 3 mps 749 mmHg 79%
21:00 +4°C° 0 mm 3 mps 748 mmHg 78%
22:00 +4°C° 0 mm 3 mps 747 mmHg 77%
23:00 +4°C° 0 mm 4 mps 747 mmHg 76%

Tomorrow, 21 April, Wednesday

Time Temperature Precipitation Wind Pressure Humidity
00:00 +3°C° 0 mm 4 mps 746 mmHg 74%
01:00 +3°C° 0 mm 4 mps 745 mmHg 73%
02:00 +1°C° 0 mm 4 mps 744 mmHg 72%
03:00 +1°C° 0.2 mm 4 mps 743 mmHg 75%
04:00 0°C° 0.2 mm 5 mps 742 mmHg 79%
05:00 -1°C° 0.2 mm 5 mps 741 mmHg 83%
06:00 -1°C° 0.7 mm 5 mps 741 mmHg 87%
07:00 -1°C° 0.7 mm 5 mps 740 mmHg 91%
08:00 -1°C° 0.7 mm 5 mps 739 mmHg 95%
09:00 -1°C° 1.2 mm 4 mps 738 mmHg 96%
10:00 -1°C° 1.2 mm 4 mps 738 mmHg 97%
11:00 -1°C° 1.2 mm 4 mps 737 mmHg 97%
12:00 0°C° 1.2 mm 3 mps 736 mmHg 98%
13:00 0°C° 1.2 mm 3 mps 736 mmHg 98%
14:00 +1°C° 1.2 mm 2 mps 735 mmHg 99%
15:00 +1°C° 0.4 mm 2 mps 735 mmHg 99%
16:00 +1°C° 0.4 mm 2 mps 735 mmHg 99%
17:00 +2°C° 0.4 mm 1 mps 736 mmHg 99%
18:00 +1°C° 0.2 mm 2 mps 736 mmHg 99%
19:00 0°C° 0.2 mm 3 mps 737 mmHg 98%
20:00 -1°C° 0.2 mm 4 mps 737 mmHg 98%
21:00 -1°C° 0.1 mm 4 mps 738 mmHg 98%
22:00 -1°C° 0.1 mm 4 mps 739 mmHg 98%
23:00 -1°C° 0.1 mm 4 mps 739 mmHg 97%

Day after tomorrow, 22 April, Thursday

Time Temperature Precipitation Wind Pressure Humidity
00:00 0°C° 0 mm 4 mps 739 mmHg 97%
01:00 +1°C° 0 mm 3 mps 740 mmHg 96%
02:00 +1°C° 0 mm 3 mps 740 mmHg 95%
03:00 +1°C° 0 mm 3 mps 740 mmHg 96%
04:00 0°C° 0 mm 4 mps 740 mmHg 96%
05:00 +1°C° 0 mm 4 mps 741 mmHg 96%
06:00 +1°C° 0 mm 4 mps 741 mmHg 94%
07:00 +3°C° 0 mm 4 mps 741 mmHg 92%
08:00 +3°C° 0 mm 5 mps 741 mmHg 90%
09:00 +5°C° 0 mm 5 mps 741 mmHg 88%
10:00 +6°C° 0 mm 5 mps 742 mmHg 85%
11:00 +7°C° 0 mm 5 mps 742 mmHg 82%
12:00 +8°C° 0.3 mm 5 mps 742 mmHg 81%
13:00 +8°C° 0.3 mm 5 mps 743 mmHg 79%
14:00 +9°C° 0.3 mm 5 mps 743 mmHg 77%
15:00 +10°C° 0.3 mm 4 mps 743 mmHg 79%
16:00 +8°C° 0.3 mm 4 mps 743 mmHg 81%
17:00 +8°C° 0.3 mm 4 mps 744 mmHg 83%
18:00 +8°C° 0.1 mm 3 mps 744 mmHg 87%
19:00 +7°C° 0.1 mm 3 mps 744 mmHg 90%
20:00 +5°C° 0.1 mm 3 mps 745 mmHg 94%
21:00 +4°C° 0 mm 3 mps 745 mmHg 94%
22:00 +5°C° 0 mm 2 mps 745 mmHg 95%
23:00 +4°C° 0 mm 2 mps 745 mmHg 95%

23 April, Friday

Time Temperature Precipitation Wind Pressure Humidity
00:00 +4°C° 0 mm 2 mps 745 mmHg 95%
01:00 +4°C° 0 mm 2 mps 745 mmHg 95%
02:00 +4°C° 0 mm 2 mps 745 mmHg 95%
03:00 +4°C° 0 mm 2 mps 745 mmHg 95%
04:00 +3°C° 0 mm 3 mps 745 mmHg 95%
05:00 +3°C° 0 mm 3 mps 745 mmHg 95%
06:00 +5°C° 0 mm 3 mps 745 mmHg 90%
07:00 +7°C° 0 mm 3 mps 744 mmHg 86%
08:00 +8°C° 0 mm 4 mps 744 mmHg 81%
09:00 +11°C° 0 mm 4 mps 744 mmHg 76%
10:00 +12°C° 0 mm 5 mps 744 mmHg 72%
11:00 +14°C° 0 mm 6 mps 744 mmHg 67%
12:00 +14°C° 0.4 mm 5 mps 744 mmHg 67%
13:00 +14°C° 0.4 mm 5 mps 744 mmHg 67%
14:00 +14°C° 0.4 mm 5 mps 743 mmHg 68%
15:00 +14°C° 0.6 mm 5 mps 743 mmHg 71%
16:00 +13°C° 0.6 mm 5 mps 743 mmHg 73%
17:00 +13°C° 0.6 mm 4 mps 743 mmHg 76%
18:00 +12°C° 0.3 mm 5 mps 742 mmHg 77%
19:00 +10°C° 0.3 mm 6 mps 742 mmHg 79%
20:00 +10°C° 0.3 mm 6 mps 741 mmHg 80%
21:00 +9°C° 0.1 mm 5 mps 741 mmHg 83%
22:00 +8°C° 0.1 mm 5 mps 741 mmHg 86%
23:00 +8°C° 0.1 mm 4 mps 740 mmHg 88%

24 April, Saturday

Time Temperature Precipitation Wind Pressure Humidity
00:00 +7°C° 0.8 mm 4 mps 740 mmHg 89%
01:00 +6°C° 0.8 mm 5 mps 740 mmHg 90%
02:00 +6°C° 0.8 mm 5 mps 740 mmHg 91%
03:00 +5°C° 0.4 mm 4 mps 741 mmHg 92%
04:00 +4°C° 0.4 mm 3 mps 741 mmHg 92%
05:00 +5°C° 0.4 mm 2 mps 741 mmHg 93%
06:00 +5°C° 0.4 mm 2 mps 741 mmHg 90%
07:00 +4°C° 0.4 mm 3 mps 741 mmHg 86%
08:00 +4°C° 0.4 mm 3 mps 741 mmHg 83%
09:00 +4°C° 0.2 mm 3 mps 742 mmHg 81%
10:00 +5°C° 0.2 mm 3 mps 742 mmHg 80%
11:00 +5°C° 0.2 mm 3 mps 742 mmHg 78%
12:00 +6°C° 0.1 mm 2 mps 741 mmHg 72%
13:00 +7°C° 0.1 mm 2 mps 741 mmHg 66%
14:00 +8°C° 0.1 mm 2 mps 741 mmHg 61%
15:00 +8°C° 0.3 mm 2 mps 741 mmHg 63%
16:00 +7°C° 0.3 mm 2 mps 741 mmHg 66%
17:00 +7°C° 0.3 mm 2 mps 741 mmHg 69%
18:00 +6°C° 0.4 mm 2 mps 741 mmHg 76%
19:00 +5°C° 0.4 mm 2 mps 741 mmHg 84%
20:00 +5°C° 0.4 mm 1 mps 741 mmHg 91%
21:00 +4°C° 0.7 mm 2 mps 741 mmHg 93%
22:00 +3°C° 0.7 mm 2 mps 741 mmHg 95%
23:00 +1°C° 0.7 mm 3 mps 740 mmHg 97%

25 April, Sunday

Time Temperature Precipitation Wind Pressure Humidity
00:00 +1°C° 0.5 mm 3 mps 740 mmHg 96%
01:00 +1°C° 0.5 mm 3 mps 740 mmHg 95%
02:00 +1°C° 0.5 mm 3 mps 741 mmHg 94%
03:00 +1°C° 0.1 mm 3 mps 741 mmHg 93%
04:00 0°C° 0.1 mm 3 mps 741 mmHg 91%
05:00 0°C° 0.1 mm 3 mps 741 mmHg 90%
06:00 +1°C° 0 mm 3 mps 741 mmHg 83%
07:00 +1°C° 0 mm 4 mps 741 mmHg 76%
08:00 +3°C° 0 mm 4 mps 741 mmHg 69%
09:00 +4°C° 0 mm 3 mps 741 mmHg 62%
10:00 +5°C° 0 mm 3 mps 741 mmHg 55%
11:00 +7°C° 0 mm 3 mps 742 mmHg 48%
12:00 +8°C° 0 mm 2 mps 741 mmHg 45%
13:00 +8°C° 0 mm 2 mps 741 mmHg 42%
14:00 +9°C° 0 mm 2 mps 741 mmHg 40%
15:00 +8°C° 0.1 mm 3 mps 741 mmHg 45%
16:00 +8°C° 0.1 mm 3 mps 741 mmHg 49%
17:00 +7°C° 0.1 mm 3 mps 741 mmHg 54%
18:00 +5°C° 0.1 mm 3 mps 741 mmHg 63%
19:00 +5°C° 0.1 mm 2 mps 741 mmHg 71%
20:00 +4°C° 0.1 mm 2 mps 741 mmHg 80%
21:00 +3°C° 0.3 mm 2 mps 741 mmHg 84%
22:00 +3°C° 0.3 mm 2 mps 741 mmHg 89%
23:00 +1°C° 0.3 mm 3 mps 740 mmHg 94%
Show more